Regional Weather Roundup
Issued by NWS Sterling, VA

Home | Current Version | Previous Version | Graphics & Text | Print | Product List | Glossary On
Versions: 1 2 3 4 5 6 7 8 9 10 11 12 13 14 15 16 17 18 19 20 21 22 23 24 25 26 27 28 29 30 31 32 33 34 35 36 37 38 39 40 41 42 43 44 45 46 47 48 49 50
000
ASUS41 KLWX 211210
RWRLWX

REGIONAL WEATHER ROUNDUP
NATIONAL WEATHER SERVICE BALTIMORE MD/WASHINGTON DC
800 AM EDT TUE APR 21 2015

Note: "FAIR" indicates few or no clouds below 12,000 feet
with no significant weather and/or obstructions to visibility.
 TC=TEMPERATURE CELSIUS

 * =Non NWS site. Station does not report precipitation (e.g. rain,
    snow, etc.), thunder, or fog.

DCZ001-MDZ009-015-VAZ040>042-051-053>054-211300-
WASHINGTON METRO

CITY           SKY/WX    TMP DP  RH WIND       PRES   REMARKS
WASHINGTON NAT MOSUNNY   59  38  45 W12       29.77R
DULLES         SUNNY     55  38  52 W8G17     29.78R
ANDREWS AFB    SUNNY     56  39  53 W16       29.75R
FT BELVOIR     SUNNY     57  42  55 W7        29.77R
QUANTICO       MOSUNNY   58  38  47 NW7       29.79R
COLLEGE PARK*  SUNNY     57  37  47 W9        29.76R
LEESBURG*      SUNNY     55  39  54 W8        29.78R
GAITHERSBURG*  SUNNY     54  37  54 W13       29.79R

$$

MDZ006>007-011-014-211300-
BALTIMORE METRO

CITY           SKY/WX    TMP DP  RH WIND       PRES   REMARKS
BWI AIRPORT    MOSUNNY   56  41  57 W8        29.74R
MD SCIENCE CTR   N/A     57  37  47 MISG      29.74R
MARTIN STATE   MOSUNNY   59  46  63 W12G18    29.74
ANNAPOLIS      CLOUDY    58  42  55 W10       29.74R
FORT MEADE*    SUNNY     54  45  71 W6        29.78R

$$

MDZ012-015-019>023-211300-
MARYLAND EASTERN SHORE

CITY           SKY/WX    TMP DP  RH WIND       PRES   REMARKS
OCEAN CITY     SUNNY     62  52  69 NW16G30   29.71R
SALISBURY      MOSUNNY   59  47  64 NW21G35   29.74R
BAY BRIDGE AP*   N/A    N/A N/A N/A NW12G17   29.75R
CAMBRIDGE*     MOSUNNY   59  50  72 NW10      29.74R
EASTON*        PTSUNNY   59  50  72 NW12G23   29.78R

$$

MDZ017>025-211300-
SOUTHERN MARYLAND

CITY           SKY/WX    TMP DP  RH WIND       PRES   REMARKS
PATUXENT RIVER PTSUNNY   58  43  57 NW16      29.75R
ST INIGOES     CLOUDY    59  45  59 NW7       29.75R
LEONARDTOWN*   CLOUDY    57  41  54 NW8       29.78R

$$

MDZ003>005-211300-
NORTH CENTRAL MARYLAND

CITY           SKY/WX    TMP DP  RH WIND       PRES   REMARKS
FREDERICK*     SUNNY     55  37  50 SW12      29.78R
HAGERSTOWN APT SUNNY     53  36  52 W10       29.74R
WESTMINSTER*   SUNNY     54  39  58 W9        29.74R

$$

MDZ501>502-211300-
WESTERN MARYLAND

CITY           SKY/WX    TMP DP  RH WIND       PRES   REMARKS
OAKLAND*       PTSUNNY   37 N/A N/A W13G21    29.75R
CUMBERLAND*    MOSUNNY   52  32  46 W12G22    29.82S

$$

VAZ025>031-211300-
SHENANDOAH VALLEY

CITY           SKY/WX    TMP DP  RH WIND       PRES   REMARKS
WINCHESTER*    SUNNY     54  27  35 W8        29.78R
FRONT ROYAL*   NOT AVBL
LURAY*         NOT AVBL
NEW MARKET*    NOT AVBL
STAUNTON*      MOSUNNY   51  32  47 W10       29.81S
WAYNESBORO*    FAIR      49  33  55 W5        29.80

$$

WVZ021-048>050-054>055-211300-
EASTERN WEST VIRGINIA PANHANDLE

CITY           SKY/WX    TMP DP  RH WIND       PRES   REMARKS
MARTINSBURG    NOT AVBL
PETERSBURG*    PTSUNNY   50  32  50 W7        29.80S

$$

VAZ036>039-050-211300-
CENTRAL FOOTHILLS

CITY           SKY/WX    TMP DP  RH WIND       PRES   REMARKS
CHARLOTTESVILL SUNNY     55  36  48 NW3       29.78S
CULPEPER*      SUNNY     57  34  41 NW3       29.79R
ORANGE*        SUNNY     55  37  50 CALM      29.80S
GORDONSVILLE*  FAIR      55  35  46 CALM      29.78R
WARRENTON*     FAIR      58  39  50 W6        29.78R

$$

VAZ055>057-211300-
NORTH AND CENTRAL PIEDMONT

CITY           SKY/WX    TMP DP  RH WIND       PRES   REMARKS
FREDERICKSBRG* SUNNY     58  38  45 NW6       29.78R
STAFFORD*      SUNNY     56  35  45 NW7       29.82R

$$

NCZ024-NYZ072-PAZ021-071-VAZ022-071-211300-
OTHER REGIONAL OBSERVATIONS

CITY           SKY/WX    TMP DP  RH WIND       PRES   REMARKS
NEW YORK CITY  CLOUDY    56  54  93 SW3       29.63R FOG
PHILADELPHIA   PTSUNNY   58  49  72 NW24G35   29.69R
PITTSBURGH     LGT RAIN  40  35  83 W7        29.75R
ROANOKE        MOSUNNY   51  33  50 NW16      29.86R
RICHMOND       MOSUNNY   62  43  49 NW14      29.79R
RALEIGH        MOSUNNY   54  45  71 CALM      29.86R

$$

ANZ530>537-211300-
MARINE OBSERVATIONS

STATION/POSITION TIME  TEMP    WIND        PRES
                       AIR SEA DIR/SP/G
                 (UTC) (F)     (DEG/KT/KT) (MB)
THOMAS PT LIGHT  1200   58 54  300/ 18/ 23 1007.6R
BALT KEY BRIDGE  1100   58     270/ 16/ 17 1006.1R
COVE POINT       1100   57     340/ 18/ 21 1006.4R
LEWISETTA        1100   60 58              1007.2R
SOLOMONS ISLAND  1100      58                N/A
PINEY POINT      1112          340/ 16/ 17   N/A

$$



USA.gov is the U.S. government's official web portal to all federal, state and local government web resources and services.